User: anonymous   Login
Location: Carri�res
(48.9069°N, 2.1792°E)
Time: 13:59:24
(UTC+00:00)
Language:

RESURS DK-1 - Orbit

View from above orbital plane
View from above orbital plane
View from above satellite
View from above satellite

Ground track
Ground track

The orbit data is extracted from the following two-line orbital elements,

1 29228U 06021A   21101.84921217  .00000105  00000-0  15210-4 0  9990
2 29228  69.9345 148.3006 0005410 328.1958  31.8875 15.02670779817540
Epoch (UTC): 11 April 2021 20:22:51
Eccentricity: 0.0005410
inclination: 69.9345°
perigee height: 555 km
apogee height: 562 km
right ascension of ascending node: 148.3006°
argument of perigee: 328.1958°
revolutions per day: 15.02670779
mean anomaly at epoch: 31.8875°
orbit number at epoch: 81754

The dashed part of the orbit path shows where the satellite is in the earth's shadow,  

DLR